CZ-4C DEB, 43270

Orbit data source: Space-Track

CZ-4C DEB, 43270 is space debris in SSO originally from a launch on Sat, 31 Mar 2018 UTC launched from the Taiyaun Space Center, China (TSC). Debris objects in space refer to the collection of defunct objects orbiting the Earth. Examples of debris include non-operational satellites, rocket bodies, and fragments generated from explosions, collisions, or faulty payload assembly.

Loading next visibility...
Identifier
43270, 2018-031J
Orbit
SSO
Country
Flag of CNCN / PRC
Related business
Manufacturer
Unknown
Mission
Spacecraft
Bus & Motor
Unknown
Mass
Unknown
Launch date (UTC)
2018-03-31 (8 years ago)
Launch vehicle
Unknown
Launch site
Taiyaun Space Center, China (TSC)
Object type
Payload
Rocket body
Debris
Shape & HBR
Unknown shape, 0.1 m
Radar Cross Section
Small (<0.1 m²)

Expand to show TLE details & history
Last TLE update: 1 week ago

TLE from 1 week ago
0 CZ-4C DEB
1 43270U 18031J   25295.41523955  .00001362  00000-0  18606-3 0  9992
2 43270  97.7548 353.8349 0004765 359.2256   0.8948 14.80141177417765
Epoch: 2025-10-22T09:57Z
TLE epoch observation values (Epoch: 2025-10-22T09:57:56.697Z)
Latitude
-0.00002°
Longitude
173.25949°
Altitude
628.565 km
Speed
7.546 km/s
True Right ascension
23h 35m 20s
True Declination
0° 00' 00"
Sunlit
Object was in full shadow at epoch
Visualization orbit readout
Latitude
Unknown
Longitude
Unknown
Altitude
Unknown
Speed
Unknown
Apparent Right ascension
Unknown
Apparent Declination
Unknown
Sunlit
N/A
Visualization observer readout
Local Sidereal Time
07:57:08
Azimuth
Unknown
Elevation
Unknown
Doppler factor
Unknown
Orbital elements
Apogee altitude
629.25 km
Perigee altitude
622.575 km
Semi-major axis
7,004.05 km
Eccentricity
0.00048
Inclination
97.7548°
RAAN
353.8349°
Arg. of periapsis
359.2256°
True anomaly
0.89565°
Mean anomaly
0.8948°
Eccentric anomaly
0.89523°
Mean motion
3.70271 °/min
Orbital period
97.23 mins
BSTAR
0.00018606
Loading maneuver chart data...
Computing Atmospheric mass density...
Loading historical data...
Loading historical data...
Loading historical data...
Loading historical data...
Loading historical data...
Loading historical data...
Loading historical data...

Documentation

Showing up to 5 results
|